| time (UTC) | temp F | wind direction | speed knots | gust knots | rain 1hr in | rain 24hr in | rain mn in | humidity % | barometer mb |
| 20260508164550 | 62 | 39 | 0.0 | 0.0 | 0.00 | 0.00 | 0.00 | 51 | 999.0 |
| 20260508162551 | 62 | 350 | 0.0 | 0.0 | 0.00 | 0.00 | 0.00 | 50 | 999.0 |
| 20260508160551 | 62 | 22 | 0.0 | 0.0 | 0.00 | 0.00 | 0.00 | 50 | 998.9 |
| 20260508154551 | 63 | 26 | 0.0 | 0.0 | 0.00 | 0.00 | 0.00 | 50 | 998.9 |
| 20260508152551 | 64 | 46 | 0.0 | 0.0 | 0.00 | 0.00 | 0.00 | 50 | 998.8 |
| 20260508150551 | 64 | 41 | 0.0 | 0.0 | 0.00 | 0.00 | 0.00 | 50 | 998.8 |
| 20260508144551 | 65 | 31 | 0.0 | 0.0 | 0.00 | 0.00 | 0.00 | 52 | 998.6 |
| 20260508142551 | 66 | 21 | 0.0 | 0.0 | 0.00 | 0.00 | 0.00 | 54 | 998.1 |
| 20260508140552 | 67 | 7 | 0.0 | 0.0 | 0.00 | 0.00 | 0.00 | 54 | 997.8 |
| 20260508134552 | 69 | 50 | 0.0 | 0.0 | 0.00 | 0.00 | 0.00 | 58 | 997.8 |
| 20260508132550 | 69 | 334 | 0.0 | 0.0 | 0.00 | 0.00 | 0.00 | 64 | 997.3 |
| 20260508130551 | 69 | 276 | 0.0 | 0.0 | 0.00 | 0.00 | 0.00 | 63 | 997.2 |
| 20260508124550 | 70 | 281 | 0.0 | 0.9 | 0.00 | 0.00 | 0.00 | 62 | 997.1 |
| 20260508122550 | 70 | 322 | 0.0 | 0.0 | 0.00 | 0.00 | 0.00 | 62 | 996.9 |
| 20260508120550 | 70 | 289 | 0.0 | 0.0 | 0.00 | 0.00 | 0.00 | 61 | 996.8 |
| 20260508114551 | 71 | 235 | 0.0 | 0.0 | 0.00 | 0.00 | 0.00 | 61 | 996.7 |
| 20260508112549 | 71 | 196 | 0.0 | 0.0 | 0.00 | 0.00 | 0.00 | 60 | 996.4 |
| 20260508110552 | 71 | 175 | 0.0 | 0.0 | 0.00 | 0.00 | 0.00 | 61 | 996.2 |
| 20260508104553 | 72 | 204 | 0.0 | 0.0 | 0.00 | 0.00 | 0.00 | 61 | 996.2 |
| 20260508102553 | 72 | 170 | 0.0 | 0.0 | 0.00 | 0.00 | 0.00 | 60 | 996.1 |
| 20260508100553 | 72 | 190 | 0.0 | 0.0 | 0.00 | 0.00 | 0.00 | 59 | 995.8 |
| 20260508094554 | 73 | 170 | 0.0 | 0.0 | 0.00 | 0.00 | 0.00 | 58 | 996.0 |
| 20260508092552 | 73 | 158 | 0.0 | 0.0 | 0.00 | 0.00 | 0.00 | 57 | 995.7 |
| 20260508090553 | 74 | 226 | 0.0 | 0.0 | 0.00 | 0.00 | 0.00 | 57 | 995.9 |
| 20260508084553 | 75 | 190 | 0.0 | 0.0 | 0.00 | 0.00 | 0.00 | 56 | 995.8 |
| 20260508082555 | 75 | 148 | 0.0 | 0.0 | 0.00 | 0.00 | 0.00 | 56 | 995.9 |
| 20260508080552 | 75 | 178 | 0.0 | 0.0 | 0.00 | 0.00 | 0.00 | 56 | 996.1 |
| 20260508074552 | 76 | 161 | 0.0 | 0.0 | 0.00 | 0.00 | 0.00 | 53 | 996.6 |
| 20260508072551 | 77 | 163 | 0.0 | 0.0 | 0.00 | 0.00 | 0.00 | 52 | 996.7 |
| 20260508070551 | 77 | 154 | 0.0 | 0.0 | 0.00 | 0.00 | 0.00 | 53 | 996.7 |
| 20260508064552 | 77 | 145 | 0.0 | 0.0 | 0.00 | 0.00 | 0.00 | 53 | 997.0 |
| 20260508062552 | 79 | 166 | 0.0 | 2.6 | 0.00 | 0.00 | 0.00 | 52 | 997.4 |
| 20260508060552 | 79 | 93 | 0.0 | 2.6 | 0.00 | 0.00 | 0.00 | 52 | 997.5 |
| 20260508054553 | 79 | 70 | 0.0 | 5.2 | 0.00 | 0.00 | 0.00 | 55 | 997.7 |
| 20260508052551 | 78 | 161 | 0.0 | 0.9 | 0.00 | 0.00 | 0.00 | 55 | 998.6 |
| 20260508050552 | 78 | 341 | 0.0 | 0.9 | 0.00 | 0.00 | 0.00 | 57 | 998.7 |
| 20260508044552 | 76 | 39 | 0.0 | 1.7 | 0.00 | 0.00 | 0.00 | 61 | 999.0 |
| 20260508042552 | 76 | 31 | 0.0 | 0.9 | 0.00 | 0.00 | 0.00 | 62 | 999.6 |
| 20260508040551 | 76 | 26 | 0.0 | 0.9 | 0.00 | 0.00 | 0.00 | 60 | 999.9 |
| 20260508034553 | 76 | 338 | 0.0 | 1.7 | 0.00 | 0.00 | 0.00 | 61 | 1000.1 |
| 20260508032552 | 76 | 7 | 0.0 | 0.0 | 0.00 | 0.00 | 0.00 | 61 | 1000.5 |
| 20260508030554 | 75 | 324 | 0.0 | 0.0 | 0.00 | 0.00 | 0.00 | 63 | 1000.9 |
| 20260508024553 | 75 | 327 | 0.0 | 0.9 | 0.00 | 0.00 | 0.00 | 63 | 1001.0 |
| 20260508022553 | 75 | 324 | 0.0 | 4.3 | 0.00 | 0.00 | 0.00 | 63 | 1001.2 |
| 20260508020552 | 75 | 323 | 0.0 | 4.3 | 0.00 | 0.00 | 0.00 | 62 | 1001.4 |
| 20260508014552 | 75 | 322 | 0.0 | 4.3 | 0.00 | 0.00 | 0.00 | 63 | 1001.4 |
| 20260508012552 | 74 | 320 | 0.0 | 0.0 | 0.00 | 0.00 | 0.00 | 63 | 1001.4 |
| 20260508010553 | 75 | 32 | 0.0 | 0.0 | 0.00 | 0.00 | 0.00 | 64 | 1001.8 |
| 20260508004552 | 74 | 344 | 0.0 | 0.9 | 0.00 | 0.00 | 0.00 | 64 | 1001.9 |
| 20260508002551 | 74 | 350 | 0.0 | 1.7 | 0.00 | 0.00 | 0.00 | 64 | 1002.6 |
| 20260508000552 | 73 | 344 | 0.0 | 1.7 | 0.00 | 0.00 | 0.00 | 65 | 1002.6 |
| 20260507234553 | 72 | 333 | 0.0 | 2.6 | 0.00 | 0.00 | 0.00 | 69 | 1002.5 |
| 20260507232551 | 71 | 329 | 0.0 | 0.9 | 0.00 | 0.00 | 0.00 | 73 | 1002.6 |
| 20260507230558 | 70 | 326 | 0.0 | 0.9 | 0.00 | 0.00 | 0.00 | 75 | 1002.7 |
| 20260507224551 | 69 | 42 | 0.0 | 0.0 | 0.00 | 0.00 | 0.00 | 77 | 1003.1 |
| 20260507222552 | 68 | 90 | 0.0 | 0.0 | 0.00 | 0.00 | 0.00 | 80 | 1003.0 |
| 20260507220551 | 67 | 155 | 0.0 | 0.0 | 0.00 | 0.00 | 0.00 | 82 | 1003.2 |
| 20260507214551 | 66 | 154 | 0.0 | 0.0 | 0.00 | 0.00 | 0.00 | 82 | 1003.4 |
| 20260507212551 | 65 | 154 | 0.0 | 0.0 | 0.00 | 0.00 | 0.00 | 83 | 1003.3 |
| 20260507210551 | 64 | 154 | 0.0 | 0.0 | 0.00 | 0.00 | 0.00 | 83 | 1003.1 |
| 20260507204553 | 64 | 154 | 0.0 | 0.0 | 0.00 | 0.00 | 0.00 | 84 | 1003.0 |
| 20260507202551 | 63 | 155 | 0.0 | 0.0 | 0.00 | 0.00 | 0.00 | 84 | 1003.0 |
| 20260507200556 | 63 | 154 | 0.0 | 0.0 | 0.00 | 0.00 | 0.00 | 83 | 1003.1 |
| 20260507194553 | 63 | 154 | 0.0 | 0.0 | 0.00 | 0.00 | 0.00 | 83 | 1002.9 |
| 20260507192551 | 63 | 154 | 0.0 | 0.0 | 0.00 | 0.00 | 0.00 | 83 | 1002.6 |
| 20260507190551 | 63 | 154 | 0.0 | 0.0 | 0.00 | 0.00 | 0.00 | 83 | 1002.7 |
| 20260507184550 | 63 | 154 | 0.0 | 0.0 | 0.00 | 0.00 | 0.00 | 83 | 1002.7 |
| 20260507182550 | 63 | 154 | 0.0 | 0.0 | 0.00 | 0.00 | 0.00 | 83 | 1002.9 |
| 20260507180554 | 64 | 154 | 0.0 | 0.0 | 0.00 | 0.00 | 0.00 | 83 | 1002.9 |
| 20260507174552 | 64 | 144 | 0.0 | 0.0 | 0.00 | 0.00 | 0.00 | 83 | 1002.8 |
| 20260507172551 | 64 | 144 | 0.0 | 0.0 | 0.00 | 0.00 | 0.00 | 83 | 1003.0 |
| 20260507170551 | 64 | 130 | 0.0 | 0.0 | 0.00 | 0.00 | 0.00 | 83 | 1003.0 |